[[{"header":{"parameterUnit":"m.s-1","parameterCategory":1,"la1":30.2991,"la2":30.254,"lo1":-89.0895,"lo2":-89.0444,"dy":0.0017,"dx":0.0017,"nx":28,"ny":28,"refTime":"2025-07-31T21:00:00:Z","depth":0,"parameterNumber":2,"parameterNumberName":"U-component_of_WINDS"},"data":[0,0,0,0,0,0,0,0,0,0,0,0,0,0,0,0,0,0,0,0,0,0,0,0,0,0,0,0,0,0,0,0,0,0,0,0,0,0,0,0,0,0,0,0,0,0,0,0,0,0,0,0,0,0,0,0,0,0,1.1521,1.1521,0,1.1551,1.1551,1.1552,1.1593,1.1594,1.1594,1.1595,1.1625,1.1625,1.1625,0,0,0,0,0,0,0,0,0,0,0,0,0,1.1499,1.1499,1.1521,1.1521,1.1522,1.1551,1.1551,1.1552,1.1593,1.1594,1.1594,1.1595,1.1625,1.1625,1.1625,0,0,0,0,0,0,0,0,0,0,0,0,0,1.1517,1.1499,1.1521,1.1546,1.1548,1.1551,1.1551,1.1552,1.1593,1.1594,1.1595,1.1596,1.1625,1.1625,1.1625,1.1606,0,0,1.1626,1.1626,0,0,0,0,0,0,0,0,1.1516,1.1517,1.1542,1.1544,1.1547,1.1569,1.1555,1.157,1.1592,1.1576,1.1595,1.1596,1.1606,1.1608,1.1611,1.1607,1.1609,1.1626,1.1626,1.1626,1.1626,0,0,0,0,0,0,0,1.1514,1.1516,1.1533,1.1542,1.1545,1.1555,1.1559,1.1558,1.1584,1.1577,1.158,1.1583,1.1607,1.1611,1.1612,1.1609,1.1626,1.1626,1.1627,1.1627,1.1593,1.1592,0,0,0,0,0,0,1.1509,1.1515,1.1532,1.1534,1.1533,1.1555,1.1559,1.1561,1.1585,1.1589,1.1582,1.1585,1.161,1.1612,1.1613,1.1593,1.1626,1.1627,1.1627,1.1594,1.1593,1.1592,0,0,0,0,0,0,1.1509,1.1511,1.1531,1.1525,1.1529,1.1554,1.1556,1.1561,1.1564,1.1588,1.1593,1.1581,1.1611,1.1613,1.1608,1.1595,1.1627,1.1627,1.1595,1.1594,1.1592,1.1552,0,0,0,0,0,0,1.1508,1.151,1.1503,1.1525,1.1529,1.1525,1.1555,1.1561,1.1565,1.1569,1.1588,1.1593,1.1611,1.1607,1.1608,1.1596,1.1627,1.1597,1.1595,1.1593,1.1555,1.1549,1.1545,0,0,0,0,0,1.1507,1.149,1.1502,1.1504,1.152,1.1524,1.1526,1.1548,1.1563,1.1557,1.1572,1.1592,1.1596,1.1606,1.1608,1.1595,1.1598,1.1595,1.1593,1.1557,1.155,1.1545,0,0,0,0,0,0,1.1465,1.1493,1.1507,1.1497,1.1508,1.1531,1.1523,1.154,1.1547,1.155,1.1578,1.1582,1.1574,1.1584,1.1595,1.1578,1.16,1.1598,1.1572,1.1566,1.1561,1.1559,1.1627,0,0,0,0,0,1.1455,1.1456,1.148,1.1468,1.1473,1.1497,1.1499,1.1515,1.1528,1.1533,1.1548,1.1559,1.1563,1.1565,1.157,1.1556,1.1562,1.1548,1.1543,1.1539,1.1537,1.1532,1.1526,1.1584,1.1584,1.1584,0,0,1.1433,1.1449,1.1447,1.146,1.1471,1.1471,1.15,1.1499,1.15,1.1532,1.1529,1.1541,1.1555,1.1546,1.1543,1.1554,1.1522,1.1536,1.1533,1.1533,1.1529,1.1523,1.1518,1.1582,1.1583,1.1583,0,0,1.1394,1.1406,1.1398,1.1408,1.1423,1.144,1.1438,1.1458,1.1467,1.1465,1.149,1.1491,1.1496,1.1506,1.1512,1.1477,1.1496,1.1478,1.1452,1.1447,1.1442,1.1438,1.1427,1.1423,1.1476,1.1476,1.1476,0,1.1366,1.1367,1.1391,1.1389,1.1394,1.1424,1.1417,1.1425,1.1441,1.1444,1.1457,1.1466,1.1478,1.1472,1.1464,1.1467,1.1466,1.1476,1.1441,1.1437,1.1434,1.1424,1.1419,1.1474,1.1474,1.1474,1.1474,0,1.1331,1.1332,1.1324,1.1339,1.1344,1.1338,1.1362,1.1364,1.138,1.1395,1.1392,1.1407,1.1416,1.1416,1.1431,1.1413,1.142,1.1436,1.1458,1.1426,1.1417,1.1413,1.147,1.1471,1.1472,1.1472,0,0,1.1267,1.1296,1.1293,1.1301,1.1321,1.1322,1.1318,1.1328,1.1329,1.1339,1.1337,1.1342,1.1358,1.1364,1.1381,1.1376,1.135,1.1394,1.1395,1.1386,1.1331,1.1319,1.1314,1.1362,1.1361,1.1361,1.133,0,1.1232,1.1228,1.125,1.1241,1.1242,1.1271,1.1268,1.128,1.1294,1.1297,1.1313,1.1316,1.1336,1.1341,1.1337,1.1353,1.1339,1.1356,1.1361,1.1361,1.1357,1.1309,1.1296,1.1267,1.1327,1.1326,1.1326,0,1.1191,1.12,1.119,1.1212,1.1213,1.121,1.1221,1.1224,1.1238,1.1249,1.1256,1.1276,1.1275,1.1296,1.1295,1.1306,1.1309,1.1318,1.1317,1.1319,1.1342,1.131,1.1258,1.1254,1.132,1.1321,1.1321,0,1.1146,1.1155,1.1151,1.1157,1.1181,1.1179,1.1189,1.1205,1.1209,1.1218,1.1222,1.1231,1.1236,1.1242,1.1264,1.1277,1.1261,1.1284,1.127,1.127,1.1266,1.1266,1.1214,1.1267,1.1267,1.1267,1.1267,0,1.1106,1.1099,1.1132,1.1129,1.1123,1.1148,1.1141,1.1154,1.1168,1.1169,1.1194,1.1194,1.1223,1.1226,1.1243,1.1241,1.1243,1.1252,1.1256,1.125,1.1249,1.1253,1.1256,1.1266,1.1266,1.1266,1.1267,0,1.1054,1.1076,1.1073,1.1097,1.1103,1.1097,1.1118,1.1116,1.1132,1.1133,1.1135,1.116,1.1165,1.1188,1.1198,1.121,1.1202,1.1211,1.1197,1.1201,1.1187,1.1188,1.1136,1.1131,1.1186,1.1185,1.1185,0,1.1027,1.1023,1.1046,1.1049,1.1058,1.1061,1.1066,1.1092,1.1096,1.1113,1.111,1.1117,1.1125,1.1133,1.1152,1.1161,1.1171,1.1152,1.1172,1.1166,1.1172,1.1172,1.1172,1.1148,1.1147,1.1146,1.1146,0,1.0978,1.0989,1.0995,1.1005,1.101,1.1019,1.103,1.103,1.1059,1.1062,1.1068,1.1074,1.1086,1.1094,1.1106,1.1117,1.1136,1.1139,1.1137,1.113,1.1123,1.1128,1.1186,1.114,1.1141,1.1141,1.1142,1.1142,1.0939,1.0936,1.0953,1.0959,1.097,1.0979,1.098,1.0996,1.1002,1.1013,1.1028,1.1032,1.1048,1.1067,1.1076,1.1081,1.1091,1.1087,1.1087,1.1086,1.1083,1.1122,1.1083,1.1083,1.1083,1.1083,1.1083,0,1.0891,1.0903,1.0909,1.0923,1.0928,1.0946,1.0959,1.0962,1.0966,1.0979,1.0986,1.0994,1.1002,1.1022,1.1032,1.1032,1.1041,1.1033,1.1034,1.1037,1.1072,1.1074,1.1026,1.1026,1.1026,1.1026,1.1026,1.1026,1.0867,1.0865,1.0878,1.0881,1.0894,1.0899,1.0905,1.0914,1.0925,1.0932,1.0939,1.0952,1.0968,1.098,1.0988,1.0994,1.0997,1.0987,1.0995,1.1028,1.1034,1.1039,1.1041,1.0987,1.0987,1.096,1.0959,1.0959]},{"header":{"parameterUnit":"m.s-1","parameterCategory":1,"la1":30.2991,"la2":30.254,"lo1":-89.0895,"lo2":-89.0444,"dy":0.0017,"dx":0.0017,"nx":28,"ny":28,"refTime":"2025-07-31T21:00:00:Z","depth":0,"parameterNumber":3,"parameterNumberName":"V-component_of_WINDS"},"data":[0,0,0,0,0,0,0,0,0,0,0,0,0,0,0,0,0,0,0,0,0,0,0,0,0,0,0,0,0,0,0,0,0,0,0,0,0,0,0,0,0,0,0,0,0,0,0,0,0,0,0,0,0,0,0,0,0,0,0.1157,0.1156,0,0.1082,0.1081,0.1081,0.1089,0.109,0.1091,0.1092,0.1013,0.101,0.1007,0,0,0,0,0,0,0,0,0,0,0,0,0,0.1302,0.1299,0.1157,0.1156,0.1155,0.1082,0.1081,0.108,0.1088,0.109,0.1091,0.1093,0.1014,0.101,0.1006,0,0,0,0,0,0,0,0,0,0,0,0,0,0.1234,0.1298,0.1157,0.115,0.1149,0.1083,0.1081,0.108,0.1088,0.109,0.1092,0.1093,0.1015,0.101,0.1006,0.094,0,0,0.0991,0.0989,0,0,0,0,0,0,0,0,0.1238,0.1229,0.1152,0.115,0.1149,0.1097,0.1104,0.1033,0.1088,0.1111,0.1092,0.1094,0.1039,0.1032,0.1014,0.0937,0.0933,0.0991,0.0988,0.0986,0.0984,0,0,0,0,0,0,0,0.1243,0.1232,0.1127,0.1151,0.1149,0.115,0.1142,0.109,0.1066,0.1109,0.111,0.1101,0.1039,0.1019,0.1013,0.0932,0.0991,0.0986,0.0983,0.0982,0.0796,0.0794,0,0,0,0,0,0,0.125,0.1236,0.1129,0.1125,0.1199,0.1146,0.1137,0.1112,0.1067,0.1061,0.1099,0.1102,0.1026,0.1018,0.101,0.0929,0.0986,0.0981,0.0978,0.0798,0.0796,0.0793,0,0,0,0,0,0,0.1253,0.124,0.1132,0.1181,0.1167,0.1141,0.1112,0.1109,0.109,0.1059,0.1055,0.1084,0.1028,0.1017,0.0958,0.0927,0.0979,0.0975,0.08,0.0797,0.0794,0.0769,0,0,0,0,0,0,0.1257,0.1241,0.1217,0.118,0.1164,0.1082,0.1111,0.1106,0.1082,0.1084,0.1044,0.1039,0.1028,0.0965,0.0953,0.0921,0.0971,0.0803,0.0799,0.0795,0.0772,0.0765,0.0759,0,0,0,0,0,0.1262,0.1212,0.1215,0.1203,0.1134,0.1081,0.1071,0.1061,0.1079,0.1054,0.1034,0.104,0.0933,0.0959,0.0945,0.0912,0.0805,0.08,0.0796,0.0775,0.0767,0.0759,0,0,0,0,0,0,0.1245,0.1207,0.121,0.1147,0.1117,0.1082,0.105,0.1053,0.1016,0.1019,0.1007,0.0998,0.0938,0.0919,0.0949,0.0846,0.0871,0.0863,0.086,0.0852,0.0845,0.085,0.0967,0,0,0,0,0,0.1234,0.1195,0.1164,0.1111,0.1096,0.1075,0.1052,0.1047,0.1015,0.1001,0.0977,0.0945,0.0904,0.0877,0.0838,0.077,0.0761,0.074,0.0734,0.0729,0.0722,0.0684,0.0674,0.0778,0.0778,0.0778,0,0,0.121,0.1185,0.1161,0.1107,0.1083,0.1042,0.1065,0.102,0.0989,0.0994,0.0937,0.0918,0.0881,0.0818,0.0788,0.08,0.0691,0.0723,0.0719,0.0715,0.0678,0.0668,0.0659,0.0775,0.0776,0.0776,0,0,0.1146,0.1124,0.1077,0.1053,0.1016,0.1003,0.0992,0.0956,0.0944,0.0887,0.089,0.0852,0.0782,0.0755,0.0732,0.0658,0.0662,0.0646,0.0611,0.0574,0.0566,0.0558,0.0531,0.0521,0.0639,0.0639,0.0639,0,0.1121,0.106,0.1052,0.1007,0.0983,0.0987,0.0939,0.0915,0.0867,0.085,0.0864,0.0776,0.0751,0.0681,0.0663,0.0644,0.063,0.065,0.0568,0.056,0.0553,0.0527,0.0516,0.0638,0.0638,0.0638,0.0638,0,0.103,0.0988,0.0954,0.0909,0.0881,0.0835,0.0818,0.0791,0.0788,0.0773,0.0714,0.0685,0.0639,0.0622,0.0619,0.0551,0.0559,0.0571,0.0596,0.0542,0.0516,0.0506,0.0635,0.0636,0.0636,0.0637,0,0,0.0952,0.0904,0.0891,0.087,0.0831,0.0797,0.0751,0.0707,0.0683,0.065,0.061,0.055,0.0561,0.0535,0.0529,0.0496,0.0438,0.0512,0.051,0.0498,0.0359,0.035,0.0338,0.044,0.0438,0.0437,0.0362,0,0.0883,0.0801,0.0793,0.0719,0.0679,0.0683,0.0642,0.0613,0.0598,0.0561,0.0544,0.0501,0.0519,0.0503,0.0472,0.0452,0.0409,0.0457,0.0401,0.0399,0.0409,0.0325,0.0315,0.0245,0.0352,0.035,0.0349,0,0.0791,0.0756,0.0679,0.0645,0.0628,0.0591,0.055,0.0515,0.0482,0.0473,0.0444,0.0442,0.0393,0.0421,0.0352,0.0385,0.0361,0.0348,0.0345,0.0338,0.037,0.0314,0.0223,0.0212,0.0334,0.0335,0.0336,0,0.074,0.0674,0.0619,0.0601,0.056,0.0534,0.0516,0.0484,0.0458,0.0422,0.0405,0.0364,0.034,0.0308,0.0294,0.0316,0.0225,0.0252,0.0215,0.0215,0.0194,0.0195,0.0097,0.0182,0.0182,0.0182,0.0183,0,0.0662,0.0614,0.0595,0.0561,0.0508,0.0498,0.0445,0.0427,0.0399,0.0361,0.0362,0.0326,0.0311,0.0272,0.0261,0.0205,0.0194,0.0185,0.0182,0.0184,0.0185,0.0167,0.0171,0.018,0.018,0.0181,0.0181,0,0.0595,0.0581,0.0521,0.0487,0.0478,0.0439,0.041,0.0376,0.0362,0.0314,0.0302,0.0279,0.0233,0.0217,0.0161,0.0154,0.0088,0.009,0.01,0.0099,0.0061,0.0065,-0.0054,-0.007,0.0028,0.0027,0.0026,0,0.0546,0.0509,0.0472,0.0447,0.0428,0.0388,0.0362,0.0351,0.0323,0.0282,0.0253,0.0209,0.0172,0.0098,0.0076,0.0033,0.0033,-0.0005,0.0027,0.0029,0.0031,0.0032,0.0028,-0.0012,-0.0013,-0.0014,-0.0014,0,0.046,0.0454,0.0417,0.0377,0.0346,0.0314,0.0283,0.0262,0.0246,0.0215,0.0169,0.0141,0.0084,0.0039,-0.0005,-0.0025,-0.0023,-0.0024,-0.0035,-0.0035,-0.0028,-0.0034,0.0082,-0.0021,-0.0021,-0.002,-0.002,-0.0019,0.0399,0.0366,0.0335,0.0293,0.0269,0.024,0.0206,0.0188,0.015,0.0104,0.01,0.005,0.0017,-0.0042,-0.0064,-0.0104,-0.0094,-0.011,-0.0114,-0.0118,-0.0122,-0.002,-0.0112,-0.0112,-0.0112,-0.0111,-0.0111,0,0.0311,0.0291,0.0253,0.021,0.0177,0.0184,0.015,0.0121,0.0077,0.0047,0.0011,-0.0043,-0.0086,-0.0112,-0.0156,-0.0183,-0.0184,-0.0195,-0.0194,-0.0199,-0.0128,-0.0114,-0.0194,-0.0194,-0.0194,-0.0194,-0.0194,-0.0194,0.0261,0.0206,0.0197,0.013,0.011,0.0062,0.0041,0.0014,-0.001,-0.007,-0.0106,-0.0121,-0.015,-0.0197,-0.0237,-0.0243,-0.026,-0.0273,-0.0279,-0.0212,-0.0204,-0.0196,-0.0183,-0.0276,-0.0276,-0.0347,-0.0347,-0.0348]}]]